Terminal Aerodrome Forecast
Issued by NWS Duluth, MN

Home | Current Version | Previous Version | Text Only | Print | Product List | Glossary On
Versions: 1 2 3 4 5 6 7 8 9 10 11 12 13 14 15 16 17 18 19 20 21 22 23 24
150
FTUS43 KDLH 271729
TAFINL
TAF
KINL 271729Z 2718/2818 VRB05KT P6SM VCSH OVC090
     FM272000 20006KT P6SM -SHRA VCTS OVC040CB
     FM280300 14003KT 6SM BR VCSH BKN050
     FM281000 00000KT 3SM BR OVC015
     FM281500 16005KT P6SM SCT020=

USA.gov is the U.S. government's official web portal to all federal, state and local government web resources and services.